Regional Weather Roundup
Issued by NWS

Home | Current Version | Previous Version | Text Only | Print | Product List | Glossary Off
Versions: 1 2 3 4 5 6 7 8 9 10 11 12 13 14 15 16 17 18 19 20 21 22 23 24 25 26 27 28 29 30 31 32 33 34 35 36 37 38 39 40 41 42 43 44 45 46 47 48 49 50

000
ASUS43 KOAX 120810
RWRNE

WEATHER ROUNDUP FOR NEBRASKA
NATIONAL WEATHER SERVICE OMAHA NE
200 AM CST FRI FEB 12 2016

NOTES: SATELLITE DATA IS BEING USED TO AUGMENT CLOUD COVER ABOVE
       12000 FEET.
       "FAIR" INDICATES FEW OR NO CLOUDS BELOW 12,000 FEET WITH NO
       SIGNIFICANT WEATHER AND/OR OBSTRUCTIONS TO VISIBILITY.

  * THESE STATIONS DO NOT REPORT WEATHER SUCH AS RAIN...SNOW OR FOG.

NEZ001>004-019>022-054>056-120900-
NEBRASKA PANHANDLE

CITY           SKY/WX    TMP DP  RH WIND       PRES   REMARKS
SCOTTSBLUFF    CLOUDY    31  26  82 N6        30.24S WCI  25
ALLIANCE       CLOUDY    24  22  91 W9        30.23R WCI  14
CHADRON        CLOUDY    24  21  88 W3        30.25F
KIMBALL        CLOUDY    33  27  79 W12       30.25S WCI  24
SIDNEY         CLEAR     32  26  78 W8        30.24R WCI  25
$$

NEZ057>060-069>072-079>082-120900-
SOUTHWEST NEBRASKA

CITY           SKY/WX    TMP DP  RH WIND       PRES   REMARKS
NORTH PLATTE   CLOUDY    30  26  85 N5        30.23R WCI  25
IMPERIAL         N/A     30  25  81 N3        30.24R
LEXINGTON      CLOUDY    30  26  86 N6        30.23R WCI  24
MCCOOK         CLOUDY    33  28  81 W8        30.25R WCI  26
OGALLALA       CLOUDY    30  26  85 W3        30.24R
$$

NEZ005>010-023>029-035>040-094-120900-
NORTH CENTRAL NEBRASKA

CITY           SKY/WX    TMP DP  RH WIND       PRES   REMARKS
VALENTINE      CLOUDY    31  27  85 N10       30.24R WCI  22
AINSWORTH      CLOUDY    30  28  90 NW10      30.23F WCI  21
BROKEN BOW     CLOUDY    32  29  88 N9        30.22R WCI  24
O`NEILL        MOCLDY    26  24  93 NW6       30.25R WCI  19
ORD            CLOUDY    29  25  85 N10       30.24R WCI  20
THEDFORD       CLOUDY    32  30  93 NW5       30.22F WCI  27
$$

NEZ041-046>049-061>064-073>077-083>087-120900-
SOUTH CENTRAL NEBRASKA

CITY           SKY/WX    TMP DP  RH WIND       PRES   REMARKS
GRAND ISLAND   CLOUDY    29  25  85 N16       30.24S WCI  17
AURORA         CLOUDY    29  27  92 N13       30.24R WCI  19
HASTINGS       CLOUDY    30  25  81 N13       30.22R WCI  20
HEBRON         PTCLDY    29  27  92 N13       30.21S WCI  19
HOLDREGE       CLOUDY    30  27  90 N10       30.22R WCI  21
KEARNEY *      CLOUDY    30  27  86 N12       30.23S WCI  21
YORK           CLOUDY    28  28 100 N8        30.23S FOG     WCI  20
$$

NEZ011>018-030>034-042>045-120900-
NORTHEAST NEBRASKA

CITY           SKY/WX    TMP DP  RH WIND       PRES   REMARKS
NORFOLK        CLOUDY    26  22  84 NW17      30.24R WCI  13
ALBION         CLOUDY    27  24  87 NW9       30.25R WCI  18
BLAIR          CLOUDY    23  21  91 N5        30.22R WCI  17
COLUMBUS *     CLOUDY    27  18  69 NW13      30.26R WCI  16
FREMONT        CLOUDY    23  19  86 N5        30.25R WCI  17
TEKAMAH        CLOUDY    21  18  88 N8        30.26R WCI  11
WAYNE          CLOUDY    13  11  91 CALM      30.26S
$$

NEZ050>053-065>068-078-088>093-120900-
SOUTHEAST NEBRASKA

CITY           SKY/WX    TMP DP  RH WIND       PRES   REMARKS
LINCOLN        CLOUDY    29  25  85 NW7       30.25R FOG     WCI  22
OMAHA EPPLEY   CLOUDY    24  20  84 N7        30.24S WCI  16
BEATRICE       CLOUDY    29  27  93 NW6       30.23R WCI  23
FALLS CITY     CLOUDY    29  22  75 N6        30.21R WCI  23
NEBRASKA CITY  CLOUDY    29  26  86 N7        30.21R WCI  22
PLATTSMOUTH    CLOUDY    26  21  83 N3        30.22R
$$

NEZ044-045-051>053-067-120900-
OMAHA AREA

CITY           SKY/WX    TMP DP  RH WIND       PRES   REMARKS
OMAHA EPPLEY   CLOUDY    24  20  84 N7        30.24S WCI  16
BLAIR          CLOUDY    23  21  91 N5        30.22R WCI  17
FREMONT        CLOUDY    23  19  86 N5        30.25R WCI  17
MILLARD        CLOUDY    26  21  79 NW3       30.24R
OFFUTT AFB     CLOUDY    26  20  80 N3        30.23R
PLATTSMOUTH    CLOUDY    26  21  83 N3        30.22R
WAHOO          CLOUDY    26  23  89 N7        30.24R WCI  18
$$



USA.gov is the U.S. government's official web portal to all federal, state and local government web resources and services.